MST,Max TemperatureF,Mean TemperatureF,Min TemperatureF,Max Dew PointF,MeanDew PointF,Min DewpointF,Max Humidity, Mean Humidity, Min Humidity, Max Sea Level PressureIn, Mean Sea Level PressureIn, Min Sea Level PressureIn, Max VisibilityMiles, Mean VisibilityMiles, Min VisibilityMiles, Max Wind SpeedMPH, Mean Wind SpeedMPH, Max Gust SpeedMPH,PrecipitationIn, CloudCover, Events, WindDirDegrees
2013-11-1,50,41,31,28,24,20,75,53,31,30.20,30.12,29.96,10,10,10,15,4,21,0.00,1,,200
2013-11-2,56,41,26,26,22,15,78,50,22,30.16,29.91,29.58,10,10,10,25,6,36,0.00,0,,240
2013-11-3,49,37,24,27,15,3,68,44,19,29.93,29.67,29.53,10,10,10,25,10,31,0.00,1,,278
2013-11-4,37,27,17,16,10,7,68,49,29,30.09,30.00,29.91,10,10,10,14,4,15,0.00,0,,235
2013-11-5,38,27,15,13,9,5,73,50,27,30.23,30.16,30.09,10,10,10,17,5,20,0.00,0,,188
2013-11-6,49,35,21,19,16,12,77,52,26,30.37,30.25,30.17,10,10,10,12,5,13,0.00,0,,148
2013-11-7,55,40,25,29,24,19,78,60,41,30.35,30.13,29.75,10,10,9,32,6,46,0.00,0,,254
2013-11-8,56,44,32,27,22,17,52,37,22,29.98,29.80,29.70,10,10,10,35,8,48,0.00,2,,306
2013-11-9,51,40,28,26,24,22,72,54,35,30.22,30.12,29.99,10,10,10,13,4,13,0.00,1,,276
2013-11-10,61,46,30,30,26,22,78,54,29,30.24,30.16,30.09,10,10,10,14,3,15,0.00,0,,192
2013-11-11,56,42,28,31,26,22,82,59,35,30.58,30.31,30.10,10,10,10,13,6,14,0.00,0,,338
2013-11-12,54,40,25,33,28,24,100,69,38,30.61,30.49,30.35,10,10,9,10,3,10,0.00,0,,174
2013-11-13,54,41,28,34,30,23,85,68,50,30.33,30.18,30.06,10,10,10,21,4,25,0.00,1,,301
2013-11-14,52,40,27,28,22,19,72,52,32,30.12,29.91,29.66,10,10,10,17,5,22,0.00,0,,285
2013-11-15,48,36,23,22,17,9,69,49,28,29.67,29.55,29.44,10,10,10,16,7,20,0.00,0,,169
2013-11-16,47,34,21,23,16,10,68,47,25,29.55,29.38,29.27,10,10,10,35,11,48,T,2,,261
2013-11-17,43,32,20,14,9,6,63,43,23,30.06,29.90,29.58,10,10,10,18,6,22,0.00,0,,279
2013-11-18,53,37,20,20,16,12,68,46,24,30.17,30.04,29.86,10,10,10,12,4,14,0.00,0,,240
2013-11-19,53,40,26,25,22,18,75,55,35,29.81,29.75,29.66,10,10,10,15,5,20,0.00,0,,176
2013-11-20,55,36,16,25,19,14,92,61,30,30.21,29.93,29.66,10,7,1,26,6,32,0.06,4,Snow,69
2013-11-21,18,10,2,13,11,1,100,87,74,30.74,30.36,30.15,10,4,1,9,3,11,0.07,6,Snow,94
2013-11-22,20,8,-5,11,3,-7,96,82,67,30.83,30.77,30.52,10,9,6,8,2,9,T,0,,284
2013-11-23,27,14,0,12,7,-3,88,69,50,30.82,30.67,30.44,10,10,7,10,2,11,0.00,0,,170
2013-11-24,31,18,4,17,11,2,96,77,58,30.40,30.30,30.18,10,10,7,10,3,11,0.00,0,,293
2013-11-25,43,30,17,23,17,13,81,60,39,30.46,30.35,30.26,10,10,10,12,3,14,0.00,0,,274
2013-11-26,44,32,20,23,19,15,88,64,40,30.51,30.39,30.26,10,10,10,13,2,13,0.00,0,,282
2013-11-27,47,34,20,28,23,18,84,67,49,30.22,30.18,30.07,10,10,10,9,4,11,0.00,0,,316
2013-11-28,40,32,23,26,24,21,85,70,54,30.23,30.16,30.11,10,10,9,7,2,8,0.00,0,,308
2013-11-29,49,36,23,27,23,17,92,67,42,30.24,30.17,30.09,10,10,6,10,4,13,0.00,0,,304
2013-11-30,48,37,25,23,21,17,69,52,34,30.24,30.17,30.08,10,10,10,14,4,15,0.00,1,,327